Location: Augustenthal
(51.7167°N, 10.2833°E)
Time: 14:12:26
(UTC+00:00)

TSX-5 - Pass Details

Date: 18 May 2021
Orbit: 403 x 1320 km, 68.9° (Epoch: 19 June)

Event Time Altitude Azimuth Distance (km) Brightness Sun altitude
Rises 23:26:09 0° 327° (NNW) 2,391 8.0 -18.5°
Reaches altitude 10° 23:28:05 10° 330° (NNW) 1,573 7.0 -18.5°
Maximum altitude 23:31:29 69° 54° (NE) 532 3.8 -18.4°
Enters shadow 23:33:10 32° 131° (SE) 928 4.6 -18.4°
